Stündliche Wetter La Pampa Province

Heute, 11 Mai, Dienstag

Zeit Temperatur Niederschläge Wind Luftdruck Luftfeuchtigkeit
00:00 +7°C° 0 mm 2 m/S 747 mmHg 37%
01:00 +7°C° 0 mm 2 m/S 747 mmHg 38%
02:00 +7°C° 0 mm 3 m/S 747 mmHg 39%
03:00 +7°C° 0 mm 3 m/S 746 mmHg 40%
04:00 +5°C° 0 mm 3 m/S 746 mmHg 41%
05:00 +5°C° 0 mm 3 m/S 746 mmHg 42%
06:00 +5°C° 0 mm 3 m/S 746 mmHg 42%
07:00 +5°C° 0 mm 3 m/S 746 mmHg 42%
08:00 +7°C° 0 mm 3 m/S 746 mmHg 42%
09:00 +8°C° 0 mm 4 m/S 746 mmHg 38%
10:00 +12°C° 0 mm 4 m/S 746 mmHg 34%
11:00 +14°C° 0 mm 5 m/S 745 mmHg 30%
12:00 +15°C° 0 mm 5 m/S 745 mmHg 29%
13:00 +16°C° 0 mm 6 m/S 744 mmHg 28%
14:00 +17°C° 0 mm 6 m/S 743 mmHg 27%
15:00 +17°C° 0 mm 6 m/S 742 mmHg 29%
16:00 +16°C° 0 mm 5 m/S 742 mmHg 30%
17:00 +15°C° 0 mm 5 m/S 741 mmHg 31%
18:00 +14°C° 0 mm 5 m/S 741 mmHg 34%
19:00 +12°C° 0 mm 5 m/S 741 mmHg 38%
20:00 +10°C° 0 mm 5 m/S 742 mmHg 42%
21:00 +10°C° 0 mm 5 m/S 741 mmHg 43%
22:00 +10°C° 0 mm 6 m/S 741 mmHg 45%
23:00 +9°C° 0 mm 6 m/S 741 mmHg 47%

Morgen, 12 Mai, Mittwoch

Zeit Temperatur Niederschläge Wind Luftdruck Luftfeuchtigkeit
00:00 +9°C° 0 mm 6 m/S 741 mmHg 50%
01:00 +9°C° 0 mm 6 m/S 740 mmHg 52%
02:00 +9°C° 0 mm 6 m/S 740 mmHg 54%
03:00 +9°C° 0 mm 6 m/S 740 mmHg 56%
04:00 +9°C° 0 mm 6 m/S 739 mmHg 59%
05:00 +9°C° 0 mm 6 m/S 739 mmHg 61%
06:00 +9°C° 0 mm 6 m/S 739 mmHg 62%
07:00 +10°C° 0 mm 6 m/S 739 mmHg 64%
08:00 +10°C° 0 mm 6 m/S 740 mmHg 65%
09:00 +12°C° 0 mm 7 m/S 740 mmHg 57%
10:00 +16°C° 0 mm 7 m/S 740 mmHg 50%
11:00 +18°C° 0 mm 8 m/S 740 mmHg 42%
12:00 +21°C° 0 mm 8 m/S 739 mmHg 38%
13:00 +22°C° 0 mm 7 m/S 739 mmHg 34%
14:00 +23°C° 0 mm 7 m/S 739 mmHg 29%
15:00 +22°C° 0 mm 5 m/S 738 mmHg 31%
16:00 +21°C° 0 mm 4 m/S 738 mmHg 32%
17:00 +20°C° 0 mm 3 m/S 738 mmHg 33%
18:00 +19°C° 0 mm 3 m/S 739 mmHg 35%
19:00 +18°C° 0 mm 3 m/S 739 mmHg 36%
20:00 +17°C° 0 mm 3 m/S 739 mmHg 37%
21:00 +16°C° 0 mm 3 m/S 739 mmHg 41%
22:00 +16°C° 0 mm 3 m/S 739 mmHg 44%
23:00 +14°C° 0 mm 3 m/S 739 mmHg 48%

übermorgen, 13 Mai, Donnerstag

Zeit Temperatur Niederschläge Wind Luftdruck Luftfeuchtigkeit
00:00 +14°C° 0 mm 3 m/S 739 mmHg 50%
01:00 +13°C° 0 mm 3 m/S 739 mmHg 52%
02:00 +13°C° 0 mm 3 m/S 739 mmHg 54%
03:00 +13°C° 0 mm 3 m/S 739 mmHg 55%
04:00 +12°C° 0 mm 3 m/S 739 mmHg 56%
05:00 +12°C° 0 mm 3 m/S 740 mmHg 57%
06:00 +12°C° 0 mm 3 m/S 740 mmHg 57%
07:00 +12°C° 0 mm 3 m/S 740 mmHg 56%
08:00 +12°C° 0 mm 3 m/S 741 mmHg 56%
09:00 +15°C° 0 mm 4 m/S 741 mmHg 49%
10:00 +18°C° 0 mm 4 m/S 741 mmHg 42%
11:00 +21°C° 0 mm 4 m/S 741 mmHg 35%
12:00 +22°C° 0 mm 4 m/S 741 mmHg 33%
13:00 +23°C° 0 mm 4 m/S 741 mmHg 30%
14:00 +23°C° 0 mm 5 m/S 740 mmHg 28%
15:00 +22°C° 0 mm 4 m/S 740 mmHg 30%
16:00 +21°C° 0 mm 3 m/S 740 mmHg 33%
17:00 +20°C° 0 mm 3 m/S 740 mmHg 35%
18:00 +19°C° 0 mm 3 m/S 741 mmHg 40%
19:00 +18°C° 0 mm 4 m/S 741 mmHg 44%
20:00 +15°C° 0 mm 4 m/S 741 mmHg 49%
21:00 +15°C° 0 mm 4 m/S 741 mmHg 52%
22:00 +14°C° 0 mm 4 m/S 741 mmHg 56%
23:00 +13°C° 0 mm 4 m/S 742 mmHg 59%

14 Mai, Freitag

Zeit Temperatur Niederschläge Wind Luftdruck Luftfeuchtigkeit
00:00 +13°C° 0 mm 4 m/S 742 mmHg 59%
01:00 +13°C° 0 mm 4 m/S 741 mmHg 60%
02:00 +12°C° 0 mm 4 m/S 741 mmHg 60%
03:00 +12°C° 0 mm 3 m/S 741 mmHg 60%
04:00 +12°C° 0 mm 3 m/S 741 mmHg 60%
05:00 +12°C° 0 mm 3 m/S 741 mmHg 60%
06:00 +12°C° 0 mm 3 m/S 741 mmHg 58%
07:00 +13°C° 0 mm 3 m/S 741 mmHg 57%
08:00 +13°C° 0 mm 3 m/S 741 mmHg 55%
09:00 +14°C° 0 mm 3 m/S 741 mmHg 52%
10:00 +17°C° 0 mm 4 m/S 742 mmHg 49%
11:00 +19°C° 0 mm 4 m/S 742 mmHg 45%
12:00 +20°C° 0 mm 4 m/S 741 mmHg 43%
13:00 +21°C° 0 mm 4 m/S 741 mmHg 41%
14:00 +22°C° 0 mm 4 m/S 741 mmHg 39%
15:00 +21°C° 0 mm 4 m/S 741 mmHg 41%
16:00 +20°C° 0 mm 3 m/S 740 mmHg 44%
17:00 +19°C° 0 mm 3 m/S 740 mmHg 47%
18:00 +18°C° 0 mm 3 m/S 741 mmHg 50%
19:00 +17°C° 0 mm 3 m/S 741 mmHg 53%
20:00 +15°C° 0 mm 4 m/S 741 mmHg 56%
21:00 +16°C° 0 mm 3 m/S 741 mmHg 56%
22:00 +16°C° 0 mm 3 m/S 741 mmHg 56%
23:00 +16°C° 0 mm 3 m/S 742 mmHg 57%

15 Mai, Samstag

Zeit Temperatur Niederschläge Wind Luftdruck Luftfeuchtigkeit
00:00 +16°C° 0 mm 3 m/S 742 mmHg 58%
01:00 +14°C° 0 mm 3 m/S 742 mmHg 60%
02:00 +14°C° 0 mm 3 m/S 742 mmHg 61%
03:00 +14°C° 0 mm 3 m/S 742 mmHg 63%
04:00 +14°C° 0 mm 2 m/S 742 mmHg 65%
05:00 +14°C° 0 mm 2 m/S 742 mmHg 66%
06:00 +14°C° 0 mm 2 m/S 742 mmHg 65%
07:00 +14°C° 0 mm 2 m/S 742 mmHg 64%
08:00 +14°C° 0 mm 2 m/S 743 mmHg 62%
09:00 +15°C° 0 mm 2 m/S 743 mmHg 53%
10:00 +17°C° 0 mm 2 m/S 743 mmHg 44%
11:00 +20°C° 0 mm 1 m/S 743 mmHg 35%
12:00 +21°C° 0 mm 1 m/S 743 mmHg 33%
13:00 +22°C° 0 mm 1 m/S 743 mmHg 31%
14:00 +23°C° 0 mm 1 m/S 742 mmHg 28%
15:00 +22°C° 0 mm 1 m/S 742 mmHg 30%
16:00 +20°C° 0 mm 2 m/S 742 mmHg 33%
17:00 +20°C° 0 mm 2 m/S 742 mmHg 35%
18:00 +18°C° 0 mm 3 m/S 742 mmHg 38%
19:00 +17°C° 0 mm 3 m/S 743 mmHg 42%
20:00 +16°C° 0 mm 3 m/S 743 mmHg 45%
21:00 +16°C° 0 mm 3 m/S 743 mmHg 48%
22:00 +14°C° 0 mm 3 m/S 743 mmHg 52%
23:00 +14°C° 0 mm 3 m/S 743 mmHg 55%

16 Mai, Sonntag

Zeit Temperatur Niederschläge Wind Luftdruck Luftfeuchtigkeit
00:00 +14°C° 0 mm 3 m/S 743 mmHg 59%
01:00 +13°C° 0 mm 3 m/S 743 mmHg 62%
02:00 +14°C° 0 mm 2 m/S 743 mmHg 66%
03:00 +14°C° 0 mm 2 m/S 743 mmHg 67%
04:00 +13°C° 0 mm 3 m/S 742 mmHg 68%
05:00 +12°C° 0 mm 3 m/S 742 mmHg 70%
06:00 +12°C° 0 mm 3 m/S 743 mmHg 70%
07:00 +12°C° 0 mm 3 m/S 743 mmHg 71%
08:00 +12°C° 0 mm 3 m/S 743 mmHg 72%
09:00 +14°C° 0 mm 3 m/S 743 mmHg 64%
10:00 +17°C° 0 mm 3 m/S 743 mmHg 57%
11:00 +19°C° 0 mm 3 m/S 743 mmHg 49%
12:00 +19°C° 0 mm 3 m/S 743 mmHg 46%
13:00 +20°C° 0 mm 2 m/S 743 mmHg 43%
14:00 +21°C° 0 mm 2 m/S 742 mmHg 39%
15:00 +20°C° 0 mm 2 m/S 742 mmHg 41%
16:00 +19°C° 0 mm 2 m/S 742 mmHg 43%
17:00 +19°C° 0 mm 3 m/S 742 mmHg 46%
18:00 +18°C° 0 mm 3 m/S 742 mmHg 49%
19:00 +17°C° 0 mm 3 m/S 743 mmHg 52%
20:00 +16°C° 0 mm 3 m/S 743 mmHg 55%
21:00 +14°C° 0 mm 3 m/S 743 mmHg 58%
22:00 +14°C° 0 mm 2 m/S 743 mmHg 61%
23:00 +14°C° 0 mm 2 m/S 744 mmHg 64%
Mehr zeigen

Wir brauchen deine Erlaubnis

Meteoprog und unser Service Anbieter werden persönliche Daten aufbewahren, so wie Cookies, Geräte Bezeichnung oder ähnliche Technologien von deinem Gerät und Prozess, so wie Persönliche Daten Inhalte und Werbungen, genauso wie social Media und den Verkehr zu analysieren.

  • Aufbewahrung und/oder Zugang zu deiner Geräte Informationen.

    Cookies, Geräte Bezeichnung oder andere Informationen, können aufbewahrt oder Zugang zu deinem Gerät erhalten, für den Grund, der oben angegeben wird.

  • Personalisierte Werbung und Inhalte, Messungen, Einblick in das Publikum und Produkt Entwicklung.

    Werbungen und Inhalte können personalisiert werden, basierend auf ein Profil. Mehr Daten können besser personalisierte Werbungen und Inhalte hinzufügen. Werbung und Inhalte können gezeigt und gemessen werden. Einblicke über das Publikum, welche die Werbung gesehen haben und den Inhalt, können abgeleitet werden. So wie Daten können genutzt werden, um es zu verbessern oder die Benutzer Erfahrung zu verbessern das System und die Software.

Wenn du “Ich stimme zu” klickst, erlaubst du uns, die Cookies zu benutzen die Geräte Bezeichnung, den Web oder ähnliche Technologien zu benutzen. Deine Settings, können in deinem Gerät bei deinem Browser geändert werden.

Für den bestimmten Zweck, berechtigten Interessen beruhen darauf, mehr als auf den Inhalt. Du kannst mehr darüber in unseren Privaten und Cookie Politik lesen.